Miscellaneous Local Product
Issued by NWS North Platte, NE

Home | Current Version | Previous Version | Text Only | Print | Product List | Glossary On
Versions: 1 2 3 4 5 6 7 8 9 10 11 12 13 14 15 16 17 18 19 20 21 22 23 24 25 26 27 28 29 30 31 32 33 34 35 36 37 38 39 40 41 42 43 44 45 46 47 48 49 50
000
AXUS43 KLBF 081710
MISLBF


WESTERN AND NORTH CENTRAL NEBRASKA HOURLY WEATHER ROUNDUP
NATIONAL WEATHER SERVICE NORTH PLATTE NE
1100 AM CST THU DEC 08 2016

NOTE: "FAIR" INDICATES FEW OR NO CLOUDS BELOW 12,000 FEET WITH NO
SIGNIFICANT WEATHER AND/OR OBSTRUCTIONS TO VISIBILITY.

NOTE: STATIONS NOT REPORTING VARIABLES SUCH AS SKY/WEATHER OR
PRESSURE ARE PROVIDED BY RAWS AND APRS NETWORKS AND ARE NOT UNDER
NATIONAL WEATHER SERVICE QUALITY CONTROL.

...OBSERVATIONS IN AND NEAR THE EASTERN PANHANDLE OF NEBRASKA...

CITY           SKY/WX    TMP DP  RH WIND       PRES   REMARKS
PINE RIDGE     SUNNY     -1  -5  82 CALM      30.58F
CHADRON        SUNNY      8  -4  58 W8        30.59S WCI  -4
ALLIANCE       SUNNY      5  -4  66 W6        30.53S WCI  -6
SIDNEY         SUNNY      5  -4  66 NW6       30.52R WCI  -6
CRESCENT LAKE    N/A      7  -2  65 NW6         N/A  WCI  -3
$$

...OBSERVATIONS IN NORTHERN NEBRASKA AND FAR SOUTHERN SOUTH DAKOTA...

CITY           SKY/WX    TMP DP  RH WIND       PRES   REMARKS
WINNER         FAIR      10  -2  58 NW17      30.66R WCI  -8
VALENTINE      SUNNY      9  -5  53 NW16      30.63R WCI  -8
THEDFORD       SUNNY     13   1  60 NW15      30.61S WCI  -3
AINSWORTH      SUNNY     10  -1  60 NW18      30.61S WCI  -8
O`NEILL        SUNNY     13   2  60 NW20      30.62S WCI  -4
ORD            SUNNY     15   0  51 NW20      30.63S WCI  -2
BROKEN BOW     SUNNY     14   0  53 NW16      30.61R WCI  -2
VALENTINE NWR    N/A      7  -5  57 NW13G20     N/A  WCI  -9
BUTTE            N/A     10   2  69 NW20        N/A  WCI  -9
HALSEY           N/A     10  -5  51 NW9G18      N/A  WCI  -3
CHAMBERS         N/A     13  -2  50 W6          N/A  WCI   4
EWING            N/A     14   4  65 NW12G20     N/A  WCI   0
$$

...OBSERVATIONS IN SOUTHWEST NEBRASKA AND FAR NORTHEAST COLORADO...

CITY           SKY/WX    TMP DP  RH WIND       PRES   REMARKS
HOLYOKE        FAIR      14   1  57 W6        30.59R WCI   5
IMPERIAL       SUNNY      8  -3  61 NW8       30.62R WCI  -4
OGALLALA       SUNNY     10   2  69 NW8       30.61R WCI  -2
NORTH PLATTE   SUNNY     15   2  56 N14       30.62F WCI   0
MCCOOK         SUNNY      7  -2  66 W12       30.68R WCI  -8
LEXINGTON      SUNNY     16   3  55 NW13      30.64S WCI   2
STAPLETON        N/A     10   0  63 CALM        N/A
GOTHENBURG       N/A     14   2  60 NW12        N/A  WCI   0
CALLAWAY         N/A     12   1  62 N13         N/A  WCI  -3
$$

...OBSERVATIONS IN CENTRAL LINCOLN COUNTY AREA...

CITY           SKY/WX    TMP DP  RH WIND       PRES   REMARKS
N.P. AIRPORT   SUNNY     15   2  56 N14       30.62F WCI   0
N.P. DOWNTOWN    N/A     12   1  62 N9G16       N/A  WCI   0
N.P. SOUTHEAST   N/A     12   0  59 N6G14       N/A  WCI   3
N.P. HILLCREST   N/A     12   1  61 N14         N/A  WCI  -3
$$

...SOME OBSERVATIONS FROM AROUND THE REGION...

CITY           SKY/WX    TMP DP  RH WIND       PRES   REMARKS
LARAMIE        CLOUDY     3  -2  79 S7        30.22S WCI  -9
CHEYENNE       CLOUDY     7   0  73 SW6       30.32S WCI  -3
DENVER         CLOUDY     7   4  87 S5        30.40F WCI  -2
AKRON          SUNNY      5   0  79 W3        30.49R
SCOTTSBLUFF    SUNNY      4  -4  69 W5        30.54S WCI  -5
RAPID CITY     SUNNY      6  -3  66 SE6       30.58S WCI  -4
BISMARCK       CLOUDY     3  -3  76 W13       30.67R HAZE    WCI -14
PIERRE         MOSUNNY    7   0  73 NW23      30.66S WCI -14
SIOUX FALLS    MOSUNNY   14   6  70 NW23G30   30.56R WCI  -5
OMAHA          MOSUNNY   19   6  57 NW16      30.63R WCI   4
GRAND ISLAND   SUNNY     16   3  56 NW17G26   30.65S WCI   0
KANSAS CITY    SUNNY     20   7  57 NW13      30.62S WCI   7
WICHITA        MOSUNNY   24   7  48 N16       30.70S WCI  11
OKLAHOMA CITY  PTSUNNY   28   8  43 N16       30.69F WCI  16
DALLAS         CLOUDY    33  18  53 N17       30.66R WCI  22
AMARILLO       CLOUDY    20   7  57 N8        30.61S WCI  10
DODGE CITY     SUNNY     15   4  61 NW9       30.68R WCI   3
HAYS           SUNNY     17   4  56 NW16      30.70S WCI   2
GOODLAND       SUNNY     11   0  61 N8        30.59R WCI  -1
$$




USA.gov is the U.S. government's official web portal to all federal, state and local government web resources and services.